When you browse on this site, cookies collect data to enhance your experience and personalize the content and advertising you see.
Visit our Privacy Policy to learn more. By continuing to use the site, you agree to this use of cookies and data.
  • In Hungary
  • List of Countries
  • For 7 days
  • Water Temperature
  • Weather Map
  • News
  • Weather Widgets
  • user-avatar
    Login

    Hourly Weather Govsy

    Today, 15 October, Tuesday

    Time Temperature Precipitation Wind Pressure Humidity
    00:00 +7°C° 0 mm 4 mps 748 mmHg 90%
    01:00 +7°C° 0 mm 3 mps 749 mmHg 89%
    02:00 +5°C° 0 mm 3 mps 750 mmHg 89%
    03:00 +5°C° 0 mm 3 mps 750 mmHg 89%
    04:00 +5°C° 0 mm 3 mps 751 mmHg 89%
    05:00 +5°C° 0 mm 3 mps 751 mmHg 89%
    06:00 +6°C° 0 mm 2 mps 752 mmHg 89%
    07:00 +6°C° 0 mm 2 mps 753 mmHg 89%
    08:00 +6°C° 0 mm 2 mps 753 mmHg 88%
    09:00 +6°C° 0 mm 2 mps 754 mmHg 85%
    10:00 +6°C° 0 mm 2 mps 754 mmHg 82%
    11:00 +7°C° 0 mm 2 mps 754 mmHg 79%
    12:00 +7°C° 0 mm 2 mps 754 mmHg 78%
    13:00 +8°C° 0 mm 2 mps 754 mmHg 77%
    14:00 +8°C° 0 mm 2 mps 754 mmHg 76%
    15:00 +7°C° 0 mm 2 mps 754 mmHg 79%
    16:00 +7°C° 0 mm 2 mps 754 mmHg 82%
    17:00 +6°C° 0 mm 2 mps 754 mmHg 85%
    18:00 +5°C° 0 mm 3 mps 754 mmHg 85%
    19:00 +5°C° 0 mm 3 mps 754 mmHg 85%
    20:00 +5°C° 0 mm 4 mps 754 mmHg 84%
    21:00 +5°C° 0 mm 4 mps 753 mmHg 85%
    22:00 +5°C° 0 mm 4 mps 753 mmHg 86%
    23:00 +5°C° 0 mm 4 mps 753 mmHg 87%

    Tomorrow, 16 October, Wednesday

    Time Temperature Precipitation Wind Pressure Humidity
    00:00 +4°C° 0 mm 4 mps 752 mmHg 88%
    01:00 +4°C° 0 mm 4 mps 752 mmHg 90%
    02:00 +4°C° 0 mm 4 mps 752 mmHg 91%
    03:00 +5°C° 0 mm 4 mps 751 mmHg 91%
    04:00 +5°C° 0 mm 4 mps 750 mmHg 92%
    05:00 +6°C° 0 mm 4 mps 749 mmHg 92%
    06:00 +6°C° 0 mm 4 mps 749 mmHg 92%
    07:00 +7°C° 0 mm 4 mps 749 mmHg 92%
    08:00 +7°C° 0 mm 4 mps 748 mmHg 92%
    09:00 +10°C° 0 mm 4 mps 748 mmHg 88%
    10:00 +11°C° 0 mm 4 mps 747 mmHg 83%
    11:00 +13°C° 0 mm 4 mps 747 mmHg 79%
    12:00 +14°C° 0 mm 4 mps 747 mmHg 77%
    13:00 +15°C° 0 mm 4 mps 746 mmHg 74%
    14:00 +17°C° 0 mm 4 mps 746 mmHg 71%
    15:00 +15°C° 0 mm 4 mps 745 mmHg 76%
    16:00 +14°C° 0 mm 3 mps 745 mmHg 81%
    17:00 +13°C° 0 mm 3 mps 745 mmHg 86%
    18:00 +12°C° 0 mm 3 mps 744 mmHg 87%
    19:00 +12°C° 0 mm 3 mps 744 mmHg 89%
    20:00 +11°C° 0 mm 3 mps 744 mmHg 91%
    21:00 +11°C° 0 mm 3 mps 744 mmHg 92%
    22:00 +12°C° 0 mm 2 mps 744 mmHg 93%
    23:00 +10°C° 0 mm 2 mps 744 mmHg 95%

    Day after tomorrow, 17 October, Thursday

    Time Temperature Precipitation Wind Pressure Humidity
    00:00 +12°C° 0 mm 2 mps 744 mmHg 94%
    01:00 +12°C° 0 mm 2 mps 745 mmHg 94%
    02:00 +13°C° 0 mm 2 mps 745 mmHg 93%
    03:00 +12°C° 0.1 mm 3 mps 745 mmHg 93%
    04:00 +12°C° 0.1 mm 3 mps 745 mmHg 92%
    05:00 +12°C° 0.1 mm 3 mps 745 mmHg 92%
    06:00 +11°C° 0 mm 3 mps 745 mmHg 92%
    07:00 +10°C° 0 mm 3 mps 744 mmHg 93%
    08:00 +10°C° 0 mm 3 mps 744 mmHg 94%
    09:00 +10°C° 0.2 mm 3 mps 744 mmHg 91%
    10:00 +11°C° 0.2 mm 3 mps 744 mmHg 89%
    11:00 +11°C° 0.2 mm 3 mps 744 mmHg 86%
    12:00 +12°C° 0.7 mm 2 mps 744 mmHg 89%
    13:00 +10°C° 0.7 mm 2 mps 744 mmHg 92%
    14:00 +10°C° 0.7 mm 2 mps 745 mmHg 95%
    15:00 +11°C° 0.1 mm 1 mps 745 mmHg 95%
    16:00 +11°C° 0.1 mm 1 mps 745 mmHg 96%
    17:00 +10°C° 0.1 mm 0 mps 745 mmHg 96%
    18:00 +11°C° 0 mm 1 mps 746 mmHg 96%
    19:00 +11°C° 0 mm 1 mps 746 mmHg 96%
    20:00 +10°C° 0 mm 2 mps 747 mmHg 96%
    21:00 +9°C° 0 mm 2 mps 747 mmHg 97%
    22:00 +10°C° 0 mm 1 mps 748 mmHg 97%
    23:00 +10°C° 0 mm 1 mps 748 mmHg 97%

    18 October, Friday

    Time Temperature Precipitation Wind Pressure Humidity
    00:00 +10°C° 0 mm 1 mps 748 mmHg 97%
    01:00 +10°C° 0 mm 1 mps 749 mmHg 96%
    02:00 +9°C° 0 mm 1 mps 749 mmHg 96%
    03:00 +9°C° 0 mm 1 mps 749 mmHg 96%
    04:00 +9°C° 0 mm 1 mps 749 mmHg 96%
    05:00 +9°C° 0 mm 1 mps 749 mmHg 96%
    06:00 +9°C° 0 mm 1 mps 749 mmHg 96%
    07:00 +9°C° 0 mm 1 mps 749 mmHg 96%
    08:00 +9°C° 0 mm 1 mps 750 mmHg 95%
    09:00 +10°C° 0.1 mm 1 mps 750 mmHg 96%
    10:00 +9°C° 0.1 mm 2 mps 750 mmHg 96%
    11:00 +10°C° 0.1 mm 2 mps 750 mmHg 96%
    12:00 +10°C° 0.2 mm 2 mps 750 mmHg 96%
    13:00 +10°C° 0.2 mm 2 mps 750 mmHg 96%
    14:00 +12°C° 0.2 mm 2 mps 750 mmHg 96%
    15:00 +12°C° 0.1 mm 2 mps 750 mmHg 96%
    16:00 +12°C° 0.1 mm 2 mps 750 mmHg 96%
    17:00 +12°C° 0.1 mm 2 mps 750 mmHg 96%
    18:00 +10°C° 0 mm 2 mps 750 mmHg 96%
    19:00 +10°C° 0 mm 2 mps 750 mmHg 96%
    20:00 +10°C° 0 mm 2 mps 750 mmHg 97%
    21:00 +10°C° 0 mm 2 mps 750 mmHg 96%
    22:00 +9°C° 0 mm 2 mps 750 mmHg 96%
    23:00 +9°C° 0 mm 2 mps 750 mmHg 96%

    19 October, Saturday

    Time Temperature Precipitation Wind Pressure Humidity
    00:00 +9°C° 0 mm 2 mps 751 mmHg 96%
    01:00 +9°C° 0 mm 2 mps 751 mmHg 96%
    02:00 +9°C° 0 mm 2 mps 751 mmHg 96%
    03:00 +10°C° 0 mm 1 mps 751 mmHg 96%
    04:00 +9°C° 0 mm 1 mps 751 mmHg 96%
    05:00 +9°C° 0 mm 1 mps 751 mmHg 96%
    06:00 +9°C° 0 mm 1 mps 751 mmHg 96%
    07:00 +9°C° 0 mm 1 mps 751 mmHg 97%
    08:00 +10°C° 0 mm 1 mps 751 mmHg 97%
    09:00 +10°C° 0 mm 2 mps 751 mmHg 94%
    10:00 +12°C° 0 mm 2 mps 752 mmHg 91%
    11:00 +13°C° 0 mm 2 mps 752 mmHg 88%
    12:00 +13°C° 0 mm 2 mps 751 mmHg 86%
    13:00 +14°C° 0 mm 2 mps 751 mmHg 85%
    14:00 +14°C° 0 mm 2 mps 751 mmHg 84%
    15:00 +14°C° 0 mm 2 mps 751 mmHg 88%
    16:00 +13°C° 0 mm 2 mps 751 mmHg 91%
    17:00 +12°C° 0 mm 2 mps 751 mmHg 95%
    18:00 +12°C° 0 mm 2 mps 751 mmHg 95%
    19:00 +10°C° 0 mm 2 mps 751 mmHg 96%
    20:00 +10°C° 0 mm 2 mps 751 mmHg 96%
    21:00 +10°C° 0 mm 2 mps 751 mmHg 96%
    22:00 +10°C° 0 mm 2 mps 751 mmHg 96%
    23:00 +10°C° 0 mm 2 mps 751 mmHg 96%

    20 October, Sunday

    Time Temperature Precipitation Wind Pressure Humidity
    00:00 +10°C° 0 mm 2 mps 751 mmHg 96%
    01:00 +9°C° 0 mm 2 mps 751 mmHg 97%
    02:00 +9°C° 0 mm 2 mps 750 mmHg 97%
    03:00 +9°C° 0 mm 2 mps 750 mmHg 97%
    04:00 +10°C° 0 mm 2 mps 750 mmHg 97%
    05:00 +10°C° 0 mm 2 mps 749 mmHg 96%
    06:00 +10°C° 0 mm 3 mps 749 mmHg 96%
    07:00 +10°C° 0 mm 3 mps 749 mmHg 95%
    08:00 +10°C° 0 mm 3 mps 749 mmHg 94%
    09:00 +11°C° 0 mm 3 mps 749 mmHg 90%
    10:00 +12°C° 0 mm 3 mps 749 mmHg 87%
    11:00 +13°C° 0 mm 4 mps 749 mmHg 83%
    12:00 +13°C° 0 mm 4 mps 748 mmHg 82%
    13:00 +14°C° 0 mm 4 mps 748 mmHg 80%
    14:00 +14°C° 0 mm 4 mps 748 mmHg 79%
    15:00 +13°C° 0 mm 3 mps 748 mmHg 82%
    16:00 +13°C° 0 mm 3 mps 748 mmHg 85%
    17:00 +13°C° 0 mm 2 mps 748 mmHg 88%
    18:00 +13°C° 0 mm 2 mps 748 mmHg 88%
    19:00 +13°C° 0 mm 2 mps 748 mmHg 88%
    20:00 +13°C° 0 mm 2 mps 748 mmHg 89%
    21:00 +13°C° 0 mm 2 mps 748 mmHg 90%
    22:00 +12°C° 0 mm 2 mps 748 mmHg 91%
    23:00 +12°C° 0 mm 2 mps 748 mmHg 92%
    Show more